DW3637 Weather Reports


time (UTC)temp
C
wind
direction
speed
KPH
gust
KPH
rain 1hr
cm
rain 24hr
cm
rain mn
cm
humidity
%
barometer
mb
20260507033517 11 0.0 3.2 0.03 0.46 0.46 91 1007.3
20260507032517 11 0.0 4.8 0.03 0.46 0.46 91 1007.4
20260507031537 12 315 1.6 4.8 0.05 0.46 0.46 92 1007.4
20260507030517 12 0.0 1.6 0.05 0.46 0.46 92 1007.2
20260507025537 12 0.0 3.2 0.03 0.43 0.43 92 1007.2
20260507024516 12 0.0 6.4 0.03 0.43 0.43 93 1007.1
20260507023517 13 0.0 1.6 0.05 0.43 0.43 93 1007.0
20260507022516 13 0.0 1.6 0.05 0.43 0.43 93 1007.0
20260507021517 13 0.0 3.2 0.03 0.41 0.41 93 1006.8
20260507020517 13 0.0 3.2 0.05 0.41 0.41 93 1006.7
20260507015516 13 315 1.6 4.8 0.13 0.41 0.41 93 1006.4
20260507014516 13 315 4.8 11.3 0.13 0.41 0.41 94 1006.5
20260507013517 13 0.0 1.6 0.10 0.38 0.38 95 1006.7
20260507012516 13 0.0 0.0 0.10 0.38 0.38 94 1006.4
20260507011516 14 23 1.6 8.0 0.10 0.38 0.38 94 1006.0
20260507010517 15 315 3.2 9.7 0.08 0.36 0.36 93 1006.2
20260507005516 15 248 4.8 16.1 0.00 0.28 0.28 95 1005.4
20260507004516 15 248 3.2 12.9 0.00 0.28 0.28 95 1005.3
20260507003516 15 248 4.8 12.9 0.00 0.28 0.28 95 1005.0
20260507002516 15 248 3.2 8.0 0.00 0.28 0.28 95 1005.2
20260507001516 15 248 4.8 12.9 0.00 0.28 0.28 95 1005.2
20260507000516 15 248 3.2 11.3 0.00 0.28 0.28 95 1005.2
20260506235516 15 248 4.8 11.3 0.00 0.28 0.28 95 1005.2
20260506234516 15 248 4.8 11.3 0.00 0.28 0.28 95 1005.0
20260506233516 15 248 3.2 9.7 0.00 0.28 0.28 95 1005.0
20260506232516 15 248 3.2 11.3 0.00 0.28 0.28 95 1004.9
20260506231516 15 248 4.8 11.3 0.00 0.28 0.28 95 1004.9
20260506230516 15 248 4.8 12.9 0.03 0.28 0.28 95 1004.8
20260506225516 15 225 3.2 8.0 0.03 0.28 0.28 95 1004.8
20260506224516 15 248 4.8 9.7 0.05 0.28 0.28 95 1004.6
20260506223516 15 248 3.2 9.7 0.05 0.28 0.28 95 1004.7
20260506222536 15 225 4.8 12.9 0.05 0.28 0.28 95 1004.7
20260506221516 15 225 3.2 8.0 0.05 0.28 0.28 95 1004.7
20260506220516 15 225 1.6 8.0 0.03 0.25 0.25 94 1004.7
20260506215516 15 225 4.8 12.9 0.05 0.25 0.25 94 1004.8
20260506214536 15 225 4.8 8.0 0.03 0.23 0.23 94 1004.7
20260506213524 15 248 1.6 6.4 0.03 0.23 0.23 94 1004.8
20260506212516 15 248 6.4 16.1 0.03 0.23 0.23 94 1004.8
20260506211519 15 225 4.8 17.7 0.05 0.23 0.23 94 1004.8
20260506210516 15 248 6.4 19.3 0.08 0.23 0.23 94 1004.7
20260506205536 15 248 4.8 14.5 0.05 0.20 0.20 94 1004.9
20260506204516 15 248 3.2 9.7 0.08 0.20 0.20 94 1004.9
20260506203520 15 248 3.2 9.7 0.08 0.20 0.20 94 1005.1
20260506202600 15 225 1.6 4.8 0.08 0.20 0.20 93 1005.2
20260506201520 15 248 3.2 14.5 0.08 0.18 0.18 93 1005.2
20260506200516 15 225 4.8 11.3 0.05 0.15 0.15 92 1005.3
20260506195517 15 248 4.8 12.9 0.05 0.15 0.15 92 1005.4
20260506194518 15 248 6.4 12.9 0.03 0.13 0.13 92 1005.5
20260506193516 15 248 4.8 17.7 0.03 0.13 0.13 91 1005.7
20260506192516 15 248 6.4 16.1 0.05 0.13 0.13 91 1005.8
20260506191516 16 248 4.8 12.9 0.03 0.10 0.10 91 1005.9
20260506190516 16 225 4.8 12.9 0.03 0.10 0.10 91 1006.0
20260506185517 16 248 8.0 22.5 0.05 0.10 0.10 90 1006.1
20260506184516 16 248 4.8 14.5 0.05 0.10 0.10 91 1006.0
20260506183556 16 248 3.2 14.5 0.08 0.10 0.10 90 1006.0
20260506182516 16 248 1.6 6.4 0.08 0.08 0.08 90 1006.2
20260506181516 16 248 3.2 9.7 0.08 0.08 0.08 90 1006.2
20260506180516 16 225 4.8 14.5 0.08 0.08 0.08 89 1005.8
20260506175516 16 248 3.2 9.7 0.05 0.05 0.05 88 1006.1
20260506174516 17 225 4.8 9.7 0.05 0.05 0.05 86 1006.1
20260506173516 17 248 3.2 11.3 0.03 0.03 0.03 84 1006.7
20260506172529 17 248 3.2 9.7 0.00 0.00 0.00 82 1006.7
20260506171537 18 225 4.8 12.9 0.00 0.00 0.00 79 1007.1
20260506170536 18 225 8.0 19.3 0.00 0.00 0.00 77 1007.1
20260506165537 19 248 6.4 22.5 0.00 0.00 0.00 75 1007.0
20260506164515 20 248 6.4 19.3 0.00 0.00 0.00 72 1006.9
20260506163516 20 248 8.0 17.7 0.00 0.00 0.00 70 1006.7
20260506162516 20 248 4.8 8.0 0.00 0.00 0.00 69 1006.8
20260506161516 20 248 4.8 11.3 0.00 0.00 0.00 69 1006.8
20260506160524 20 248 3.2 9.7 0.00 0.00 0.00 71 1007.1
20260506155516 20 248 6.4 16.1 0.00 0.00 0.00 71 1007.3
20260506154516 20 248 6.4 14.5 0.00 0.00 0.00 72 1007.5
20260506153556 20 248 4.8 12.9 0.00 0.00 0.00 72 1007.5
20260506152538 19 270 4.8 11.3 0.00 0.00 0.00 73 1007.7
20260506151535 19 248 3.2 11.3 0.00 0.00 0.00 74 1007.7
20260506150518 18 225 6.4 14.5 0.00 0.00 0.00 75 1007.8
20260506145515 18 248 4.8 11.3 0.00 0.00 0.00 76 1007.9
20260506144517 18 270 3.2 11.3 0.00 0.00 0.00 77 1008.0
20260506143537 18 248 3.2 8.0 0.00 0.00 0.00 77 1008.0
20260506142517 18 248 6.4 17.7 0.00 0.00 0.00 78 1008.2
20260506141517 18 248 4.8 14.5 0.00 0.00 0.00 79 1008.1
20260506140523 17 225 6.4 14.5 0.00 0.00 0.00 79 1008.2
20260506135520 17 248 4.8 12.9 0.00 0.00 0.00 80 1008.0
20260506134537 17 248 6.4 14.5 0.00 0.00 0.00 80 1008.0
20260506133517 17 248 3.2 9.7 0.00 0.00 0.00 81 1007.9
20260506132517 17 225 3.2 8.0 0.00 0.00 0.00 82 1008.0
20260506131517 16 248 6.4 11.3 0.00 0.00 0.00 82 1008.3
20260506130517 16 248 1.6 4.8 0.00 0.00 0.00 84 1008.1
20260506125518 16 225 4.8 12.9 0.00 0.00 0.00 83 1008.1
20260506124537 16 248 6.4 17.7 0.00 0.00 0.00 83 1008.5
20260506123537 16 225 3.2 9.7 0.00 0.00 0.00 84 1008.5
20260506122517 16 248 3.2 8.0 0.00 0.00 0.00 84 1008.7
20260506121517 16 248 1.6 6.4 0.00 0.00 0.00 84 1008.5
20260506120519 15 225 4.8 17.7 0.00 0.00 0.00 84 1008.5
20260506115517 15 248 3.2 14.5 0.00 0.00 0.00 84 1008.5
20260506114537 15 225 4.8 9.7 0.00 0.00 0.00 85 1008.5
20260506113517 15 225 3.2 11.3 0.00 0.00 0.00 85 1008.7
20260506112517 15 248 4.8 12.9 0.00 0.00 0.00 85 1008.6
20260506111517 15 225 3.2 11.3 0.00 0.00 0.00 86 1008.5
20260506110517 15 248 3.2 9.7 0.00 0.00 0.00 87 1009.0
20260506105518 15 248 3.2 9.7 0.00 0.00 0.00 87 1008.8
20260506104517 15 248 4.8 9.7 0.00 0.00 0.00 87 1008.9
20260506103517 15 248 3.2 6.4 0.00 0.00 0.00 86 1008.8
20260506102517 15 248 4.8 8.0 0.00 0.00 0.00 87 1008.6
20260506101517 14 248 3.2 12.9 0.00 0.00 0.00 87 1008.5
20260506100517 14 248 3.2 6.4 0.00 0.00 0.00 86 1008.5
20260506095519 14 248 3.2 8.0 0.00 0.00 0.00 86 1008.4
20260506094517 15 248 3.2 9.7 0.00 0.00 0.00 86 1008.5
20260506093517 15 225 3.2 11.3 0.00 0.00 0.00 85 1008.6
20260506092517 15 248 3.2 6.4 0.00 0.00 0.00 85 1008.5
20260506091517 15 248 1.6 4.8 0.00 0.00 0.00 84 1008.4
20260506090517 15 248 4.8 12.9 0.00 0.00 0.00 84 1008.6
20260506085518 15 248 4.8 8.0 0.00 0.00 0.00 84 1008.5
20260506084537 15 225 3.2 12.9 0.00 0.00 0.00 83 1008.6
20260506083518 15 248 3.2 6.4 0.00 0.00 0.00 83 1008.7
20260506082517 15 248 4.8 11.3 0.00 0.00 0.00 82 1008.7
20260506081542 15 248 3.2 6.4 0.00 0.00 0.00 82 1008.7
20260506080537 15 225 1.6 4.8 0.00 0.00 0.00 82 1008.7
20260506073518 15 248 3.2 11.3 0.00 0.00 0.00 80 1008.6
20260506072516 16 248 4.8 11.3 0.00 0.00 0.00 80 1008.7
20260506071517 16 225 1.6 6.4 0.00 0.00 0.00 79 1008.6
20260506070537 16 225 3.2 6.4 0.00 0.00 0.00 79 1008.6
20260506062517 16 203 1.6 6.4 0.00 0.00 0.00 76 1008.2
20260506061517 17 248 6.4 12.9 0.00 0.00 0.00 76 1008.2
20260506060556 17 225 4.8 19.3 0.00 0.00 0.00 75 1008.3
20260506050517 17 225 6.4 16.1 0.00 0.00 0.00 70 1008.4
20260506044516 17 248 3.2 11.3 0.00 0.00 0.00 70 1008.6
20260506043516 17 225 3.2 8.0 0.00 0.00 0.00 70 1008.5
20260506042557 17 248 3.2 9.7 0.00 0.00 0.00 70 1008.5
20260506041518 17 248 3.2 12.9 0.00 0.00 0.00 69 1008.6
20260506040517 17 248 3.2 9.7 0.00 0.00 0.00 69 1008.6
20260506035517 17 225 3.2 8.0 0.00 0.00 0.00 69 1008.6
20260506034517 17 225 3.2 11.3 0.00 0.00 0.00 69 1008.6